Regional Weather Roundup
Issued by NWS Portland, ME

Home | Current Version | Previous Version | Text Only | Print | Product List | Glossary On
Versions: 1 2 3 4 5 6 7 8 9 10 11 12 13 14 15 16 17 18 19 20 21 22 23 24 25 26 27 28 29 30 31 32 33 34 35 36 37 38 39 40 41 42 43 44 45 46 47 48 49 50
000
ASUS41 KGYX 071810
RWRGYX
WEATHER ROUNDUP FOR MAINE AND NEW HAMPSHIRE
NATIONAL WEATHER SERVICE GRAY ME
100 PM EST SUN FEB 07 2016

MEZ002-005-006-010-012-015-018-020-021-024-026-027-029-071900-
MAINE

CITY           SKY/WX    TMP DP  RH WIND       PRES   REMARKS
PORTLAND       MOSUNNY   42  21  43 W5        30.15R
6HR MIN TEMP:  21; 6HR MAX TEMP:  44;

SANFORD        PTSUNNY   39  21  48 N3        30.13S
BAR HARBOR     MOSUNNY   37  27  65 W7        30.14R
WISCASSET      CLOUDY    40  23  50 CALM      30.16R
6HR MIN TEMP:  22; 6HR MAX TEMP:  42;

ROCKLAND       CLOUDY    40  23  50 NW7       30.15R
FRYEBURG       CLOUDY    40  19  43 CALM      30.12R
6HR MIN TEMP:  26; 6HR MAX TEMP:  42;

LEWISTONAUBURN CLOUDY    39  19  45 NW5       30.14R
AUGUSTA        CLOUDY    35  25  66 CALM      30.13R
6HR MIN TEMP:  23; 6HR MAX TEMP:  38;

WATERVILLE     PTSUNNY   36  21  54 N6        30.09S
BANGOR         MOSUNNY   36  18  48 NW9       30.10F
6HR MIN TEMP:  19; 6HR MAX TEMP:  37; 6HR PCP: TRACE;

GREENVILLE       N/A     22   3  44 N15       30.02S WCI   9
6HR MIN TEMP:  22; 6HR MAX TEMP:  29; 6HR PCP:  0.01;

MILLINOCKET    SUNNY     29   0  28 NW14G20   30.12R WCI  18
6HR MIN TEMP:  29; 6HR MAX TEMP:  31; 6HR PCP: TRACE;

HOULTON        SUNNY     26   0  32 NW13G23   30.06R WCI  15
6HR MIN TEMP:  26; 6HR MAX TEMP:  29; 6HR PCP: TRACE;

PRESQUE ISLE   SUNNY     21  -4  33 N18       30.11R WCI   6
6HR MIN TEMP:  20; 6HR MAX TEMP:  30; 6HR PCP: TRACE;

FRENCHVILLE    SUNNY     12  -5  46 NW18      30.05S WCI  -6
6HR MIN TEMP:   9; 6HR MAX TEMP:  17; 6HR PCP: TRACE;

CARIBOU        SUNNY     17  -6  35 NW21G26   30.08S WCI   0
6HR MIN TEMP:  16; 6HR MAX TEMP:  28; 6HR PCP: TRACE;

$$

NHZ002-005-008-009-011-012-014-071900-
NEW HAMPSHIRE

CITY           SKY/WX    TMP DP  RH WIND       PRES   REMARKS
PORTSMOUTH     PTSUNNY   41  22  47 NW7       30.13R
ROCHESTER      MOSUNNY   41  21  44 CALM      30.13S
6HR MIN TEMP:  21; 6HR MAX TEMP:  42;

NASHUA         SUNNY     43  19  39 NW6       30.13F
MANCHESTER     SUNNY     44  20  38 CALM      30.12R
6HR MIN TEMP:  20; 6HR MAX TEMP:  44;

CONCORD        MOSUNNY   43  19  38 CALM      30.14R
6HR MIN TEMP:  15; 6HR MAX TEMP:  43;

LACONIA        CLOUDY    37  19  48 W6        30.14R
PLYMOUTH       CLOUDY    38  22  52 CALM      30.13R
BERLIN         PTSUNNY   33  20  58 NW7       30.07F
6HR MIN TEMP:  31; 6HR MAX TEMP:  35; 6HR PCP: TRACE;

WHITEFIELD     CLOUDY    34  23  64 CALM      30.08S
6HR MIN TEMP:  31; 6HR MAX TEMP:  35;

JAFFREY        SUNNY     40  19  43 NW5       30.10F
6HR MIN TEMP:  10; 6HR MAX TEMP:  40;

KEENE          SUNNY     41  19  42 CALM      30.12F
LEBANON        CLOUDY    39  21  48 CALM      30.14R
6HR MIN TEMP:  21; 6HR MAX TEMP:  40;

MT WASHINGTON  SNOWSHWR  10  10 100 W38         N/A  VSB 0   WCI -14
                   6HR MAX TEMP:  11; 6HR PCP:  0.03;

$$

VTZ005-007-008-071900-
VERMONT

CITY           SKY/WX    TMP DP  RH WIND       PRES   REMARKS
ST JOHNSBURY     N/A     34  22  61 MISG      30.09F
MONTPELIER     CLOUDY    34  21  59 W3        30.12S
BURLINGTON     CLOUDY    30  21  69 NW12      30.15R
$$

MAZ007-012-024-CTZ003-RIZ002-NYZ038-NYZ072-071900-
SOUTHERN NEW ENGLAND AND NY

CITY           SKY/WX    TMP DP  RH WIND       PRES   REMARKS
BOSTON         MOSUNNY   44  22  41 VRB3      30.14R
WORCESTER      SUNNY     42  17  36 NW3       30.08F
NANTUCKET      CLOUDY    42  31  64 SW6       30.17S
PROVIDENCE     MOSUNNY   41  26  55 VRB3      30.16R
HARTFORD       MOSUNNY   40  22  48 E5        30.11S
ALBANY         MOSUNNY   44  19  36 N8        30.14F
NEW YORK CITY  CLOUDY    46  22  38 NE3       30.12F
$$

ANZ081-ANZ082-ANZ150-NHZ014-MEZ023>029-071900-
COASTAL MARINE OBSERVATIONS

STATION/POSITION TIME  TEMP    WIND        PRES    WAVE
                       AIR SEA DIR/SP/G            HT/PER
                 (UTC) (F)     (DEG/KT/KT) (MB)    (FT/S)
MOUNT DESERT ROC 1800   39     280/ 15/ 18 1020.7R
MATINICUS ROCK   1800          270/ 13/ 15 1021.0R
ISLE OF SHOALS   1800   40     330/ 12/ 14 1019.7F
JEFFREYS LEDGE   1704      44                N/A     2/10
CASHES LEDGE BUO 1750   41 44  300/ 14/ 16 1020.1R   4/ 6
GEORGES BANK BUO 1750   43 45              1022.0R   4/10
$$

.............KEY..............
   WCI - WIND CHILL
   TC  - TEMPERATURE IN CELSIUS
   VSB - VISIBILITY IN MILES
   HX  - HEAT INDEX
   FAIR- INDICATES FEW OR NO CLOUDS BELOW 12,000 FT, WITH NO
         SIGNIFICANT WEATHER AND/OR OBSTRUCTIONS TO VISIBILITY.





USA.gov is the U.S. government's official web portal to all federal, state and local government web resources and services.